STARLINK-2709 (48664 NORAD) Tracking and Keplerian Element Data

This shows tracking and keplerian element data for the satellite.

Feedback or suggestion? Click here.




ElementValue
Catalog48664
NameSTARLINK-2709
Epoch Orbit1157
Epoch Day214.91667824
Epoch Year2021
RAAN92.5118
Inclination53.0526
Eccentricity0.0001674
Argument of Perigee57.2285
Mean Anonmoly125.4242
Mean Motion15.14248602
Decay Rate-0.00924026
L11 48664U 21044AC 21214.91667824 -.00924026 00000-0 -53984-1 0 9997
L22 48664 53.0526 92.5118 0001674 57.2285 125.4242 15.14248602 11571

Live tracking and technical data element details for STARLINK-2709 (NORAD 48664). STARLINK-2709 can be tracked NOW for your location showing map with azimuth and elevation plus other details from your city location.

Track the satellite on the map from your city or location and see movement details for azimuth, elevation, latitude, longitude, range, height, and movement on the map or in text.







IsCatalogInMostPopularTable: catalog: 48664, numindb: 12
Update: records affected: 1



GetName: 48664 STARLINK-2709

Hit Count: updated at: Wed, 04 Aug 2021 00:15:49 GMT